Wind_Speed
3 3 3 3 4 4 4 3 3 4 3 3 3 3 4 3 4 3 3 3 3 3 3 2 2 2 2 2 3 3 4 4 5 5 5 6 6 7 6 7 7 7 8
2 2 2 3 4 4 4 3 3 3 3 3 3 3 3 3 3 3 3 2 2 2 2 3 3 3 3 3 4 4 5 5 6 6 7 7 7 8 8 8 9 9 9
2 3 3 3 4 3 3 3 3 3 3 2 2 2 2 2 2 2 3 2 2 2 3 4 4 4 5 5 5 5 6 7 7 8 8 9 9 9 10 10 10 11 11
2 3 3 3 3 4 3 3 3 3 3 3 2 2 2 3 3 3 4 4 4 4 4 5 5 6 6 6 6 7 8 8 9 9 10 10 10 10 11 11 11 11 11
2 3 4 4 4 4 4 4 4 4 4 4 4 3 4 4 4 4 5 5 5 5 6 6 6 7 8 8 8 8 9 10 10 10 11 12 12 12 12 12 12 12 13
2 3 4 5 5 5 5 5 5 6 6 6 6 5 5 5 6 6 6 6 7 7 7 8 8 9 10 10 10 11 11 12 12 13 13 13 13 13 13 14 14 15 15
3 3 4 5 6 6 6 6 6 7 7 8 8 8 7 7 7 8 8 8 9 9 9 9 10 10 11 11 12 13 14 15 15 15 15 16 16 16 16 16 17 17 18
4 5 5 6 6 6 7 7 8 8 9 9 9 9 9 10 10 9 10 11 11 11 12 12 12 13 13 13 14 15 16 16 17 17 17 17 18 18 18 18 19 19 20
5 5 6 6 6 7 7 8 9 10 11 11 11 11 11 11 12 12 13 13 13 13 14 14 14 15 15 16 16 16 17 17 18 18 18 18 19 19 19 20 21 22 22
5 5 6 7 7 8 8 9 10 11 11 12 13 13 13 13 14 14 15 15 15 16 16 17 16 17 18 18 18 18 19 19 19 20 20 20 20 21 21 22 23 24 24
6 7 8 9 9 10 10 11 12 12 12 12 13 14 14 15 15 16 16 16 17 18 18 19 18 19 19 19 20 20 21 21 22 21 21 21 22 23 23 23 24 24 24
7 8 9 9 10 11 11 11 12 13 13 14 15 15 15 16 16 17 17 17 18 19 20 20 20 20 20 20 21 22 23 23 23 23 24 24 24 24 25 25 25 25 25
8 9 10 10 11 12 12 12 12 13 14 15 16 15 16 16 16 17 18 18 19 19 20 21 22 22 22 23 23 23 24 24 24 25 25 25 26 26 26 26 26 26 27
9 9 11 12 12 13 14 14 14 14 15 16 16 17 17 17 18 18 18 18 19 20 21 22 22 22 23 23 23 24 24 25 25 26 26 26 27 27 27 27 27 28 28
9 10 11 12 12 13 14 14 15 16 16 16 17 18 19 19 19 19 19 19 19 19 20 22 22 22 22 22 22 23 23 25 26 26 27 27 27 27 28 28 29 30 30
10 11 12 12 13 13 14 15 15 16 16 17 18 18 19 19 19 20 20 21 20 21 21 22 22 23 23 24 24 24 24 25 26 27 28 28 28 28 29 30 30 31 32
11 11 12 12 13 13 14 15 15 15 16 16 17 18 19 20 20 21 21 21 21 21 21 22 23 24 24 25 26 26 26 27 27 28 29 29 30 30 30 30 31 32 33
12 12 13 13 13 14 14 15 16 17 17 18 18 19 20 21 21 21 22 22 22 22 23 23 24 25 25 26 27 27 27 28 29 30 30 30 30 31 32 32 33 34 35
14 14 14 14 14 15 15 16 17 17 17 18 19 20 20 21 22 22 22 23 23 24 24 25 25 26 27 28 28 28 29 30 30 31 31 31 32 32 33 34 33 34 35
15 15 15 15 15 16 16 17 18 18 19 19 20 20 20 20 21 22 23 24 25 25 26 26 27 28 28 29 29 29 30 30 31 32 32 32 33 33 34 34 35 35 36
17 17 17 17 17 17 17 19 19 19 19 20 20 21 21 21 21 22 23 25 26 27 27 28 28 29 29 29 30 30 30 31 32 32 32 32 33 33 34 35 35 35 35
18 18 18 18 18 18 19 20 20 20 20 20 21 22 22 22 22 22 23 25 26 27 28 28 29 30 30 30 30 30 31 32 32 33 33 34 34 35 34 34 34 35 35
19 19 19 19 19 19 20 20 20 20 20 20 20 21 22 22 23 23 24 25 26 28 28 29 30 31 31 31 31 32 32 33 33 33 33 34 34 34 35 35 35 35 35
21 20 21 21 21 21 21 21 21 22 21 21 22 23 23 24 24 25 26 27 27 28 29 31 31 31 31 31 31 33 33 33 34 35 35 34 34 35 36 36 35 35 36
21 21 22 22 22 23 23 23 23 23 23 23 23 23 24 25 26 26 27 28 29 29 30 31 32 31 31 32 33 33 34 34 34 35 35 35 35 35 36 36 36 36 36
22 22 23 23 23 23 24 24 24 24 25 25 24 25 25 26 26 27 28 28 29 29 30 31 32 32 33 34 34 34 34 35 35 35 35 35 36 36 36 36 36 36 36
Wind_Direction
113 118 115 127 137 137 139 137 130 126 121 117 117 122 128 137 145 146 152 155 153 169 184 198 208 212 222 231 242 250 255 264 269 274 275 276 279 281 282 282 284 286 286
126 126 130 153 148 144 144 144 139 138 137 124 123 129 137 146 156 167 170 175 183 195 211 223 231 237 243 252 260 266 267 267 272 275 277 277 279 281 281 279 280 283 286
145 152 139 151 160 153 155 161 157 166 167 158 160 168 171 179 184 191 200 210 221 230 235 238 246 251 255 262 269 271 271 272 276 276 276 277 280 282 281 279 281 281 282
169 179 176 174 182 187 190 194 197 195 192 196 204 210 212 211 216 227 232 237 245 254 256 257 263 267 265 268 273 274 272 274 280 280 278 279 281 283 280 280 281 281 280
214 210 208 206 205 210 213 221 224 223 224 230 235 239 238 238 235 241 246 251 256 262 264 264 270 276 274 270 273 275 276 278 282 284 282 279 281 283 283 280 280 281 281
243 239 228 222 220 224 230 236 237 238 240 242 245 246 246 245 244 248 253 257 260 264 267 267 270 275 277 278 274 275 278 279 282 283 283 283 282 284 285 283 280 279 280
252 248 241 232 234 236 239 242 243 245 247 250 250 251 250 250 253 254 258 261 262 264 267 269 271 275 279 278 276 275 278 280 283 285 284 283 283 282 283 284 284 281 281
251 248 248 243 243 245 246 248 247 249 256 256 256 258 254 253 257 260 260 262 264 267 269 271 274 276 278 278 280 280 281 282 284 284 283 283 284 285 284 281 282 282 282
255 250 253 253 251 251 255 257 257 258 259 258 259 260 258 259 261 261 263 263 265 269 272 274 277 279 279 280 281 282 282 283 284 286 285 284 285 284 286 283 281 281 282
264 264 268 265 261 261 262 262 263 264 263 261 260 262 264 263 265 268 268 266 267 270 272 275 278 280 279 279 280 281 281 281 284 284 283 283 283 284 283 281 279 280 280
279 276 273 272 269 269 269 266 266 269 267 266 264 263 265 266 268 269 271 271 270 271 273 276 278 281 282 280 279 280 281 281 283 284 284 282 283 284 284 282 280 281 282
281 280 278 276 274 275 275 270 270 272 269 267 266 265 265 267 270 270 271 272 271 272 274 275 276 278 281 281 280 279 280 282 282 283 284 283 283 285 284 282 281 281 281
287 282 278 275 274 276 277 277 275 273 271 269 267 267 267 268 269 271 274 273 272 274 276 276 277 277 278 279 279 279 280 282 283 282 284 284 284 284 285 284 282 281 280
295 289 284 280 275 274 275 276 275 275 273 271 268 268 268 268 269 270 274 275 275 277 279 278 279 280 280 280 280 280 281 281 283 282 283 284 283 283 282 283 283 283 283
304 297 290 287 284 280 278 278 277 276 275 272 270 269 269 269 269 271 273 276 277 277 279 279 280 280 280 280 281 281 281 281 281 282 282 283 283 283 283 283 284 284 283
314 305 297 293 289 285 282 281 278 276 274 273 272 271 270 270 271 272 274 275 275 277 280 282 281 280 279 281 282 283 284 284 283 283 283 284 286 287 286 285 285 285 284
315 312 306 299 296 291 287 285 282 279 277 276 275 274 273 273 273 274 273 275 276 277 279 281 281 281 281 281 283 284 284 284 284 284 285 285 286 285 284 284 284 284 284
316 312 309 303 299 297 293 290 289 286 285 283 281 280 276 274 273 275 275 276 276 278 280 281 282 283 283 283 283 285 285 285 285 285 285 285 285 284 282 282 284 283 282
314 312 309 304 301 298 296 293 291 288 287 287 285 283 281 278 276 277 278 279 279 279 280 281 281 282 283 284 284 285 286 287 287 287 287 286 285 285 284 284 284 284 284
315 312 311 307 304 301 299 296 293 290 287 287 287 287 283 282 281 279 278 279 279 279 280 282 282 283 284 284 284 285 286 286 286 287 287 287 287 286 286 286 286 285 285
314 312 310 308 305 302 301 299 298 294 291 289 289 289 287 285 284 283 282 281 280 280 282 283 283 284 285 286 286 287 287 286 287 287 287 287 287 287 287 286 286 286 286
311 310 309 307 307 304 302 299 298 296 291 289 289 289 289 288 287 286 283 283 283 284 284 283 283 284 285 286 287 288 288 288 288 289 288 287 286 288 288 288 287 287 287
311 309 309 307 307 307 305 301 299 299 295 291 291 291 292 292 291 290 289 287 287 286 285 285 285 285 285 286 287 288 289 290 290 290 289 289 288 288 289 288 288 288 288
308 308 307 305 305 306 306 304 303 302 300 294 292 292 292 292 291 290 290 289 289 288 287 286 287 288 288 287 288 289 290 290 290 289 289 290 289 288 288 288 288 288 287
306 306 305 304 303 304 305 304 302 303 301 298 295 293 292 292 291 290 291 291 291 291 290 289 290 291 290 290 290 291 291 291 291 291 291 290 289 288 288 288 288 287 287
305 305 306 304 304 304 304 304 302 302 301 299 297 296 296 295 293 292 292 292 293 293 293 292 292 292 292 291 291 292 291 291 291 291 290 290 288 288 288 288 288 288 288
Height
5886 5887 5887 5887 5888 5889 5890 5890 5891 5891 5892 5892 5893 5893 5893 5894 5894 5895 5896 5896 5897 5897 5898 5899 5899 5899 5900 5900 5900 5900 5900 5901 5901 5901 5901 5901 5901 5901 5901 5900 5900 5900 5900
5886 5887 5887 5888 5888 5889 5890 5890 5891 5892 5892 5893 5893 5893 5894 5894 5895 5896 5896 5897 5897 5898 5898 5898 5899 5899 5899 5899 5899 5899 5900 5900 5900 5900 5900 5900 5899 5899 5899 5899 5899 5898 5898
5886 5887 5887 5888 5889 5889 5890 5891 5891 5892 5892 5893 5893 5894 5894 5895 5895 5896 5896 5897 5897 5897 5898 5898 5898 5898 5898 5898 5898 5898 5898 5899 5899 5898 5898 5898 5898 5897 5897 5897 5897 5896 5896
5886 5887 5887 5888 5889 5889 5890 5891 5891 5892 5892 5893 5893 5894 5894 5895 5895 5896 5896 5897 5897 5897 5897 5897 5898 5898 5898 5898 5897 5897 5897 5897 5897 5896 5896 5896 5895 5895 5894 5894 5894 5894 5893
5886 5887 5887 5888 5888 5889 5890 5891 5891 5892 5892 5893 5893 5893 5894 5894 5895 5895 5896 5896 5896 5896 5896 5897 5897 5896 5896 5896 5896 5895 5895 5895 5895 5894 5894 5893 5893 5892 5892 5891 5891 5891 5890
5886 5886 5887 5887 5888 5889 5889 5890 5891 5891 5892 5892 5892 5893 5893 5893 5894 5894 5895 5895 5895 5895 5895 5895 5895 5895 5894 5894 5894 5894 5893 5893 5892 5892 5891 5890 5890 5889 5889 5888 5888 5888 5887
5886 5886 5886 5887 5887 5888 5889 5889 5890 5890 5890 5891 5891 5891 5892 5892 5892 5893 5893 5893 5893 5893 5893 5893 5893 5893 5892 5892 5891 5891 5890 5890 5889 5888 5888 5887 5887 5886 5886 5885 5885 5884 5883
5885 5885 5885 5886 5886 5887 5887 5888 5888 5889 5889 5889 5890 5890 5890 5891 5891 5891 5891 5891 5891 5891 5891 5890 5890 5890 5890 5889 5889 5888 5888 5887 5886 5885 5884 5884 5883 5882 5882 5881 5880 5880 5879
5884 5884 5884 5885 5885 5885 5886 5886 5886 5887 5887 5887 5887 5888 5888 5888 5888 5889 5888 5888 5888 5888 5888 5888 5887 5887 5886 5886 5885 5885 5884 5883 5882 5881 5880 5880 5879 5878 5877 5877 5876 5875 5874
5883 5883 5883 5883 5883 5884 5884 5884 5884 5884 5884 5884 5884 5885 5885 5885 5885 5886 5886 5885 5885 5885 5885 5884 5884 5883 5883 5882 5881 5881 5880 5879 5878 5877 5876 5875 5874 5873 5872 5871 5870 5870 5869
5882 5882 5882 5882 5882 5882 5882 5881 5881 5881 5881 5881 5881 5881 5881 5881 5882 5882 5882 5882 5881 5881 5881 5880 5880 5879 5878 5878 5877 5876 5875 5874 5874 5872 5871 5870 5869 5868 5867 5866 5865 5864 5863
5880 5880 5880 5880 5880 5880 5879 5879 5878 5878 5878 5878 5878 5878 5878 5878 5878 5878 5878 5878 5877 5877 5876 5876 5875 5874 5873 5873 5872 5871 5870 5869 5868 5867 5866 5865 5864 5862 5861 5860 5859 5858 5857
5879 5878 5878 5878 5878 5877 5877 5876 5876 5875 5875 5875 5874 5874 5874 5874 5874 5874 5874 5873 5873 5872 5872 5871 5870 5869 5869 5868 5867 5866 5865 5864 5862 5862 5860 5859 5858 5856 5855 5854 5853 5852 5851
5877 5876 5876 5876 5875 5875 5874 5873 5873 5872 5872 5871 5871 5870 5870 5870 5870 5870 5869 5869 5868 5868 5867 5866 5865 5864 5863 5862 5861 5860 5859 5858 5856 5855 5854 5853 5851 5850 5849 5848 5846 5845 5844
5875 5874 5873 5873 5872 5871 5870 5870 5869 5868 5868 5867 5866 5866 5866 5866 5865 5865 5864 5864 5864 5863 5862 5861 5860 5858 5857 5856 5855 5854 5853 5852 5850 5849 5847 5846 5845 5843 5842 5841 5839 5838 5836
5873 5872 5871 5870 5869 5867 5867 5866 5865 5864 5863 5863 5862 5862 5861 5861 5860 5860 5859 5859 5858 5858 5857 5855 5854 5853 5852 5851 5849 5848 5847 5846 5844 5843 5841 5839 5838 5836 5835 5833 5832 5830 5828
5870 5869 5868 5867 5865 5864 5863 5862 5861 5860 5859 5858 5858 5857 5856 5856 5855 5855 5854 5853 5852 5852 5851 5850 5848 5847 5846 5845 5843 5842 5840 5839 5837 5836 5834 5832 5831 5829 5827 5825 5824 5822 5820
5868 5867 5865 5864 5862 5861 5859 5858 5857 5856 5855 5854 5853 5852 5851 5851 5850 5849 5848 5847 5847 5846 5845 5844 5842 5841 5839 5838 5837 5835 5833 5832 5830 5828 5827 5825 5823 5821 5819 5817 5815 5813 5811
5866 5864 5862 5861 5859 5858 5856 5855 5853 5851 5850 5849 5848 5847 5846 5845 5844 5843 5842 5842 5841 5840 5839 5838 5836 5835 5833 5831 5830 5828 5826 5824 5822 5820 5818 5817 5815 5813 5811 5809 5807 5805 5803
5863 5861 5859 5857 5855 5854 5852 5850 5849 5847 5846 5845 5843 5842 5841 5839 5838 5837 5836 5835 5834 5833 5832 5831 5829 5828 5826 5824 5822 5820 5818 5816 5814 5812 5810 5808 5806 5804 5802 5800 5798 5796 5794
5860 5858 5856 5853 5852 5850 5848 5846 5845 5843 5841 5839 5838 5837 5835 5834 5832 5831 5830 5829 5827 5826 5825 5823 5822 5820 5818 5816 5814 5812 5810 5808 5806 5804 5801 5799 5797 5795 5793 5790 5788 5786 5784
5856 5854 5852 5850 5847 5845 5844 5842 5840 5838 5836 5834 5833 5831 5830 5828 5826 5824 5823 5822 5820 5819 5817 5816 5814 5812 5810 5808 5806 5804 5802 5800 5798 5796 5793 5790 5788 5785 5783 5781 5778 5776 5774
5852 5850 5848 5845 5843 5841 5839 5837 5835 5833 5831 5829 5828 5826 5824 5822 5820 5818 5817 5815 5814 5812 5810 5808 5806 5804 5802 5800 5798 5796 5793 5791 5789 5786 5784 5781 5779 5776 5774 5771 5769 5766 5764
5847 5845 5843 5841 5839 5837 5834 5832 5830 5828 5826 5824 5822 5820 5818 5816 5814 5812 5810 5808 5806 5804 5802 5800 5798 5796 5794 5791 5789 5787 5784 5782 5779 5777 5774 5772 5769 5767 5764 5762 5759 5757 5755
5842 5840 5838 5836 5834 5832 5829 5827 5825 5823 5820 5818 5816 5814 5812 5810 5808 5805 5803 5801 5799 5797 5795 5792 5789 5787 5785 5782 5780 5777 5775 5772 5770 5767 5764 5762 5759 5757 5754 5752 5749 5747 5745
5836 5834 5832 5830 5828 5826 5824 5821 5819 5817 5814 5812 5810 5808 5806 5803 5801 5798 5796 5794 5791 5789 5786 5784 5781 5779 5776 5773 5770 5768 5765 5763 5760 5757 5755 5752 5749 5747 5744 5742 5739 5737 5734